Location: Degersen
(52.2871°N, 9.5716°E)
Time: 23:21:07
(UTC+00:00)

Cosmos 2344 - Pass Details

Date: 20 January 2026
Orbit: 1196 x 3047 km, 63.3° (Epoch: 7 February)

Event Time Altitude Azimuth Distance (km) Brightness Sun altitude
Exits shadow 05:19:45 18° 316° (NW) 2,682 4.8 -17.7°
Maximum altitude 05:25:25 51° 27° (NNE) 1,673 4.3 -16.9°
Drops below altitude 10° 05:34:26 10° 102° (ESE) 3,951 7.5 -15.5°
Sets 05:38:09 0° 108° (ESE) 5,194 8.7 -15.0°
